When you browse on this site, cookies collect data to enhance your experience and personalize the content and advertising you see.
Visit our Privacy Policy to learn more. By continuing to use the site, you agree to this use of cookies and data.
  • In Latvia
  • List of Countries
  • For 7 days
  • Water Temperature
  • Satellite Maps
  • Weather Map
  • Weather Widgets
  • user-avatar
    Login

    Hourly Weather Baden-Baden

    Today, 21 April, Sunday

    Time Temperature Precipitation Wind Pressure Humidity
    00:00 +12°C° 0 mm 2 mps 734 mmHg 62%
    01:00 +12°C° 0 mm 2 mps 734 mmHg 57%
    02:00 +12°C° 0 mm 2 mps 734 mmHg 57%
    03:00 +10°C° 0 mm 2 mps 733 mmHg 57%
    04:00 +9°C° 0 mm 2 mps 733 mmHg 57%
    05:00 +10°C° 0 mm 2 mps 733 mmHg 58%
    06:00 +10°C° 0 mm 2 mps 733 mmHg 60%
    07:00 +12°C° 0 mm 2 mps 733 mmHg 58%
    08:00 +15°C° 0 mm 2 mps 733 mmHg 53%
    09:00 +17°C° 0 mm 3 mps 732 mmHg 47%
    10:00 +19°C° 0 mm 3 mps 732 mmHg 42%
    11:00 +20°C° 0 mm 3 mps 732 mmHg 39%
    12:00 +21°C° 0 mm 4 mps 732 mmHg 36%
    13:00 +24°C° 0 mm 3 mps 732 mmHg 33%
    14:00 +24°C° 0 mm 3 mps 731 mmHg 34%
    15:00 +24°C° 0 mm 3 mps 730 mmHg 35%
    16:00 +24°C° 0 mm 3 mps 730 mmHg 36%
    17:00 +21°C° 0 mm 3 mps 729 mmHg 43%
    18:00 +19°C° 0 mm 3 mps 729 mmHg 51%
    19:00 +17°C° 0 mm 2 mps 728 mmHg 58%
    20:00 +16°C° 0 mm 2 mps 728 mmHg 60%
    21:00 +14°C° 0 mm 2 mps 728 mmHg 61%
    22:00 +13°C° 0 mm 2 mps 728 mmHg 63%
    23:00 +12°C° 0 mm 2 mps 728 mmHg 63%

    Tomorrow, 22 April, Monday

    Time Temperature Precipitation Wind Pressure Humidity
    00:00 +12°C° 0 mm 2 mps 728 mmHg 63%
    01:00 +10°C° 0 mm 2 mps 728 mmHg 63%
    02:00 +9°C° 0 mm 2 mps 727 mmHg 65%
    03:00 +9°C° 0 mm 2 mps 727 mmHg 66%
    04:00 +8°C° 0 mm 2 mps 726 mmHg 68%
    05:00 +9°C° 0 mm 2 mps 726 mmHg 68%
    06:00 +9°C° 0 mm 2 mps 726 mmHg 68%
    07:00 +10°C° 0 mm 2 mps 725 mmHg 68%
    08:00 +13°C° 0 mm 2 mps 725 mmHg 63%
    09:00 +15°C° 0 mm 2 mps 724 mmHg 58%
    10:00 +17°C° 0 mm 3 mps 724 mmHg 52%
    11:00 +19°C° 0 mm 3 mps 724 mmHg 49%
    12:00 +20°C° 0 mm 4 mps 723 mmHg 46%
    13:00 +22°C° 0 mm 5 mps 722 mmHg 43%
    14:00 +22°C° 0 mm 5 mps 722 mmHg 43%
    15:00 +22°C° 0 mm 5 mps 721 mmHg 44%
    16:00 +22°C° 0 mm 5 mps 721 mmHg 45%
    17:00 +21°C° 0 mm 5 mps 720 mmHg 49%
    18:00 +19°C° 0 mm 4 mps 720 mmHg 53%
    19:00 +17°C° 0 mm 4 mps 719 mmHg 57%
    20:00 +17°C° 0 mm 4 mps 719 mmHg 59%
    21:00 +15°C° 0 mm 5 mps 719 mmHg 60%
    22:00 +14°C° 0 mm 5 mps 719 mmHg 61%
    23:00 +13°C° 0 mm 4 mps 719 mmHg 65%

    Day after tomorrow, 23 April, Tuesday

    Time Temperature Precipitation Wind Pressure Humidity
    00:00 +12°C° 0 mm 4 mps 719 mmHg 68%
    01:00 +11°C° 0 mm 3 mps 718 mmHg 72%
    02:00 +10°C° 0 mm 3 mps 718 mmHg 75%
    03:00 +9°C° 0 mm 3 mps 718 mmHg 78%
    04:00 +9°C° 0 mm 2 mps 717 mmHg 82%
    05:00 +9°C° 0 mm 2 mps 717 mmHg 81%
    06:00 +10°C° 0 mm 2 mps 717 mmHg 80%
    07:00 +10°C° 0 mm 2 mps 717 mmHg 80%
    08:00 +13°C° 0 mm 1 mps 717 mmHg 73%
    09:00 +15°C° 0 mm 1 mps 717 mmHg 66%
    10:00 +19°C° 0 mm 1 mps 717 mmHg 59%
    11:00 +20°C° 0 mm 1 mps 717 mmHg 55%
    12:00 +22°C° 0 mm 1 mps 717 mmHg 51%
    13:00 +24°C° 0 mm 1 mps 717 mmHg 47%
    14:00 +23°C° 0.2 mm 1 mps 716 mmHg 50%
    15:00 +23°C° 0.2 mm 1 mps 716 mmHg 52%
    16:00 +23°C° 0.2 mm 1 mps 716 mmHg 55%
    17:00 +21°C° 0.5 mm 1 mps 716 mmHg 61%
    18:00 +20°C° 0.5 mm 1 mps 716 mmHg 68%
    19:00 +18°C° 0.5 mm 1 mps 716 mmHg 75%
    20:00 +16°C° 0.1 mm 1 mps 717 mmHg 78%
    21:00 +16°C° 0.1 mm 1 mps 717 mmHg 82%
    22:00 +15°C° 0.1 mm 1 mps 718 mmHg 85%
    23:00 +15°C° 0.1 mm 2 mps 718 mmHg 85%

    24 April, Wednesday

    Time Temperature Precipitation Wind Pressure Humidity
    00:00 +14°C° 0.1 mm 2 mps 718 mmHg 86%
    01:00 +14°C° 0.1 mm 2 mps 719 mmHg 86%
    02:00 +14°C° 0 mm 2 mps 719 mmHg 86%
    03:00 +13°C° 0 mm 2 mps 720 mmHg 86%
    04:00 +13°C° 0 mm 2 mps 720 mmHg 86%
    05:00 +13°C° 0.1 mm 1 mps 721 mmHg 85%
    06:00 +14°C° 0.1 mm 1 mps 721 mmHg 85%
    07:00 +14°C° 0.1 mm 1 mps 721 mmHg 85%
    08:00 +16°C° 0 mm 1 mps 722 mmHg 77%
    09:00 +19°C° 0 mm 1 mps 722 mmHg 69%
    10:00 +21°C° 0 mm 1 mps 723 mmHg 61%
    11:00 +22°C° 0.3 mm 1 mps 723 mmHg 59%
    12:00 +23°C° 0.3 mm 2 mps 723 mmHg 57%
    13:00 +22°C° 0.3 mm 3 mps 723 mmHg 55%
    14:00 +24°C° 0.1 mm 3 mps 722 mmHg 52%
    15:00 +24°C° 0.1 mm 3 mps 722 mmHg 48%
    16:00 +25°C° 0.1 mm 3 mps 722 mmHg 45%
    17:00 +24°C° 0 mm 3 mps 722 mmHg 51%
    18:00 +21°C° 0 mm 3 mps 721 mmHg 57%
    19:00 +20°C° 0 mm 3 mps 721 mmHg 63%
    20:00 +18°C° 0 mm 3 mps 722 mmHg 69%
    21:00 +15°C° 0 mm 4 mps 722 mmHg 74%
    22:00 +13°C° 0 mm 4 mps 722 mmHg 79%
    23:00 +13°C° 0 mm 4 mps 723 mmHg 79%

    25 April, Thursday

    Time Temperature Precipitation Wind Pressure Humidity
    00:00 +12°C° 0 mm 3 mps 723 mmHg 79%
    01:00 +12°C° 0 mm 3 mps 724 mmHg 79%
    02:00 +12°C° 0 mm 3 mps 724 mmHg 74%
    03:00 +11°C° 0 mm 4 mps 725 mmHg 69%
    04:00 +11°C° 0 mm 4 mps 725 mmHg 63%
    05:00 +11°C° 0.1 mm 3 mps 725 mmHg 67%
    06:00 +12°C° 0.1 mm 2 mps 725 mmHg 70%
    07:00 +10°C° 0.1 mm 2 mps 725 mmHg 74%
    08:00 +14°C° 0 mm 2 mps 726 mmHg 67%
    09:00 +16°C° 0 mm 2 mps 726 mmHg 60%
    10:00 +18°C° 0 mm 2 mps 726 mmHg 53%
    11:00 +20°C° 0 mm 2 mps 726 mmHg 49%
    12:00 +21°C° 0 mm 2 mps 726 mmHg 46%
    13:00 +23°C° 0 mm 2 mps 725 mmHg 42%
    14:00 +24°C° 0 mm 2 mps 725 mmHg 43%
    15:00 +24°C° 0 mm 3 mps 725 mmHg 43%
    16:00 +24°C° 0 mm 3 mps 725 mmHg 43%
    17:00 +21°C° 0.5 mm 3 mps 725 mmHg 54%
    18:00 +18°C° 0.5 mm 3 mps 725 mmHg 66%
    19:00 +16°C° 0.5 mm 3 mps 725 mmHg 77%
    20:00 +14°C° 0 mm 3 mps 725 mmHg 79%
    21:00 +13°C° 0 mm 3 mps 726 mmHg 80%
    22:00 +11°C° 0 mm 3 mps 726 mmHg 82%
    23:00 +11°C° 0.1 mm 3 mps 727 mmHg 82%

    26 April, Friday

    Time Temperature Precipitation Wind Pressure Humidity
    00:00 +10°C° 0.1 mm 2 mps 727 mmHg 82%
    01:00 +9°C° 0.1 mm 2 mps 727 mmHg 82%
    02:00 +9°C° 0.7 mm 2 mps 727 mmHg 86%
    03:00 +8°C° 0.7 mm 2 mps 728 mmHg 89%
    04:00 +8°C° 0.7 mm 3 mps 728 mmHg 93%
    05:00 +7°C° 1.5 mm 3 mps 729 mmHg 93%
    06:00 +7°C° 1.5 mm 3 mps 729 mmHg 93%
    07:00 +7°C° 1.5 mm 3 mps 730 mmHg 93%
    08:00 +7°C° 0.5 mm 3 mps 731 mmHg 91%
    09:00 +7°C° 0.5 mm 4 mps 732 mmHg 89%
    10:00 +7°C° 0.5 mm 4 mps 732 mmHg 86%
    11:00 +8°C° 0.1 mm 4 mps 733 mmHg 81%
    12:00 +10°C° 0.1 mm 4 mps 733 mmHg 76%
    13:00 +11°C° 0.1 mm 4 mps 733 mmHg 71%
    14:00 +11°C° 0.2 mm 4 mps 733 mmHg 70%
    15:00 +12°C° 0.2 mm 4 mps 733 mmHg 69%
    16:00 +12°C° 0.2 mm 4 mps 733 mmHg 67%
    17:00 +11°C° 0.1 mm 3 mps 733 mmHg 72%
    18:00 +10°C° 0.1 mm 3 mps 734 mmHg 76%
    19:00 +10°C° 0.1 mm 2 mps 734 mmHg 80%
    20:00 +9°C° 0 mm 2 mps 734 mmHg 83%
    21:00 +8°C° 0 mm 2 mps 735 mmHg 85%
    22:00 +7°C° 0 mm 2 mps 736 mmHg 88%
    23:00 +7°C° 0 mm 3 mps 736 mmHg 89%
    Show more